EHI
0 0 0 0 0 0 0 0 0 0 0 0 0 0 0 0 0 0 0 0 0 0 0 0 0 0 0 0 0 0 0 0 0 0 0 0 0 0 0 0 0 0 0
0 0 0 0 0 0 0 0 0 0 0 0 0 0 0 0 0 0 0 0 0 0 0 0 0 0 0 0 0 0 0 0 0 0 0 0 0 0 0 0 0 0 0
0 0 0 0 0 0 0 0 0 0 0 0 0 0 0 0 0 0 0 0 0 0 0 0 0 0 0 0 0 0 0 0 0 0 0 0 0 0 0 0 0 0 0
0 0 0 0 0 0 0 0 0 0 0 0 0 0 0 0 0 0 0 0 0 0 0 0 0 0 0 0 0 0 0 0 0 0 0 0 0 0 0 0 0 0 0
0 0 0 0 0 0 0 0 0 0 0 0 0 0 0 0 0 0 0 0 0 0 0 0 0 0 0 0 0 0 0 0 0 0 0 0 0 0 0 0 0 0 0
0 0 0 0 0 0 0 0 0 0 0 0 0 0 0 0 0 0 0 0 0 0 0 0 0 0 0 0 0 0 0 0 0 0 0 0 0 0 0 0 0 0 0
0 0 0 0 0 0 0 0 0 0 0 0 0 0 0 0 0 0 0 0 0 0 0 0 0 0 0 0 0 0 0 0 0 0 0 0 0 0 0 0 0 0 0
0 0 0 0 0 0 0 0 0 0 0 0 0 0 0 0 0 0 0 0 0 0 0 0 0 0 0 0 0 0 0 0 0 0 0 0 0 0 0 0 0 0 0
0 0 0 0 0 0 0 0 0 0 0 0 0 0 0 0 0 0 0 0 0 0 0 0 0 0 0 0 0 0 0 0 0 0 0 0 0 0 0 0 0 0 0
0 0 0 0 0 0 0 0 0 0 0 0 0 0 0 0 0 0 0 0 0 0 0 0 0 0 0 0 0 0 0 0 0 0 0 0 0 0 0 0 0 0 0
0 0 0 0 0 0 0 0 0 0 0 0 0 0 0 0 0 0 0 0 0 0 0 0 0 0 0 0 0 0 0 0 0 0 0 0 0 0 0 0 0 0 0
0 0 0 0 0 0 0 0 0 0 0 0 0 0 0 0 0 0 0 0 0 0 0 0 0 0 0 0 0 0 0 0 0 0 0 0 0 0 0 0 0 0 0
0 0 0 0 0 0 0 0 0 0 0 0 0 0 0 0 0 0 0 0 0 0 0 0 0 0 0 0 0 0 0 0 0 0 0 0 0 0 0 0 0 0 0
0 0 0 0 0 0 0 0 0 0 0 0 0 0 0 0 0 0 0 0 0 0 0 0 0 0 0 0 0 0 0 0 0 0 0 0 0 0 0 0 0 0 0
0 0 0 0 0 0 0 0 0 0 0 0 0 0 0 0 0 0 0 0 0 0 0 0 0 0 0 0 0 0 0 0 0 0 0 0 0 0 0 0 0 0 0
0 0 0 0 0 0 0 0 0 0 0 0 0 0 0 0 0 0 0 0 0 0 0 0 0 0 0 0 0 0 0 0 0 0 0 0 0 0 0 0 0 0 0
0 0 0 0 0 0 0 0 0 0 0 0 0 0 0 0 0 0 0 0 0 0 0 0 0 0 0 0 0 0 0 0 0 0 0 0 0 0 0 0 0 0 0
0 0 0 0 0 0 0 0 0 0 0 0 0 0 0 0 0 0 0 0 0 0 0 0 0 0 0 0 0 0 0 0 0 0 0 0 0 0 0 0 0 0 0
0 0 0 0 0 0 0 0 0 0 0 0 0 0 0 0 0 0 0 0 0 0 0 0 0 0 0 0 0 0 0 0 0 0 0 0 0 0 0 0 0 0 0
0 0 0 0 0 0 0 0 0 0 0 0 0 0 0 0 0 0 0 0 0 0 0 0 0 0 0 0 0 0 0 0 0 0 0 0 0 0 0 0 0 0 0
0 0 0 0 0 0 0 0 0 0 0 0 0 0 0 0 0 0 0 0 0 0 0 0 0 0 0 0 0 0 0 0 0 0 0 0 0 0 0 0 0 0 0
0 0 0 0 0 0 0 0 0 0 0 0 0 0 0 0 0 0 0 0 0 0 0 0 0 0 0 0 0 0 0 0 0 0 0 0 0 0 0 0 0 0 0
0 0 0 0 0 0 0 0 0 0 0 0 0 0 0 0 0 0 0 0 0 0 0 0 0 0 0 0 0 0 0 0 0 0 0 0 0 0 0 0 0 0 0
0 0 0 0 0 0 0 0 0 0 0 0 0 0 0 0 0 0 0 0 0 0 0 0 0 0 0 0 0 0 0 0 0 0 0 0 0 0 0 0 0 0 0
0 0 0 0 0 0 0 0 0 0 0 0 0 0 0 0 0 0 0 0 0 0 0 0 0 0 0 0 0 0 0 0 0 0 0 0 0 0 0 0 0 0 0
0 0 0 0 0 0 0 0 0 0 0 0 0 0 0 0 0 0 0 0 0 0 0 0 0 0 0 0 0 0 0 0 0 0 0 0 0 0 0 0 0 0 0
Wind_Speed
5 5 5 5 5 4 4 5 5 4 4 4 4 4 4 4 4 3 4 3 3 3 3 4 4 3 3 3 2 3 3 3 4 2 1 1 2 2 3 2 3 3 4
5 5 5 5 5 5 5 5 5 5 4 5 5 5 5 5 4 4 5 4 4 5 4 4 4 3 3 3 3 3 3 3 3 3 2 1 2 3 3 3 3 3 3
4 5 5 5 5 6 6 5 5 5 5 4 5 5 6 5 5 5 5 5 5 5 5 5 4 4 4 3 3 3 2 2 2 2 2 2 2 2 2 3 3 3 3
4 5 6 6 6 6 6 6 5 5 5 5 5 6 5 5 5 5 5 5 5 5 5 5 4 4 5 4 4 3 3 2 2 2 2 2 2 2 1 2 3 2 3
4 5 7 6 6 5 6 6 5 5 6 5 5 6 5 5 5 5 5 5 5 5 4 4 4 5 6 5 4 4 4 3 2 2 2 2 2 1 2 2 3 3 3
4 6 6 5 5 5 6 6 5 5 5 5 5 6 5 5 8 10 7 5 5 5 5 4 4 5 6 7 7 6 6 5 4 3 3 3 3 3 2 2 2 2 3
5 6 5 5 5 6 5 5 6 6 5 5 6 6 6 7 10 11 10 6 5 5 5 4 4 4 5 3 4 5 4 5 6 4 4 4 3 3 2 2 2 3 4
5 6 5 5 5 5 5 5 6 5 5 5 6 6 6 8 11 12 11 6 5 5 5 5 5 4 4 4 3 2 2 2 3 3 3 3 3 2 3 2 2 2 3
5 6 5 5 5 5 5 6 5 5 5 6 5 6 7 8 11 12 10 4 4 5 5 5 5 5 8 8 5 4 3 2 2 3 3 2 2 2 1 1 0 1 3
6 6 5 5 5 6 6 6 5 5 6 5 6 6 7 7 10 11 10 4 5 4 4 4 8 8 9 9 6 5 5 4 2 1 1 1 1 1 1 1 2 1 2
6 5 5 5 5 6 5 5 5 5 5 5 6 6 6 8 10 11 11 5 5 5 4 4 4 8 9 9 7 5 6 4 3 3 2 1 1 1 1 1 1 2 2
5 5 5 5 5 4 4 5 4 4 5 5 5 5 5 6 8 9 12 10 8 6 5 4 4 8 8 8 6 6 7 4 3 2 2 2 1 1 1 1 2 2 3
5 6 5 5 5 4 5 5 4 4 4 5 5 5 5 4 5 11 11 11 11 6 4 7 7 8 7 5 6 7 5 3 3 3 3 2 2 2 1 1 1 2 3
6 6 5 5 5 5 4 4 5 5 5 5 5 5 4 4 4 4 4 5 8 6 4 6 7 7 5 5 5 4 3 3 3 3 2 2 1 1 1 1 1 1 2
6 6 5 5 5 5 5 5 6 7 7 7 6 5 5 6 7 9 6 5 5 5 4 3 3 3 3 3 3 3 3 2 3 2 2 2 2 2 1 1 1 1 2
6 6 5 5 5 5 5 5 8 9 11 12 12 9 7 9 9 10 11 11 10 10 6 4 5 5 5 5 5 4 3 3 3 3 3 3 2 2 2 1 1 2 3
7 6 5 5 5 5 5 5 5 6 8 11 12 12 11 10 10 11 11 11 11 11 6 5 5 5 5 5 4 4 4 4 3 3 3 3 3 2 2 2 2 2 3
7 7 7 5 5 5 5 5 5 5 5 4 6 10 11 10 10 10 10 8 6 7 4 5 5 5 5 5 4 4 4 4 4 3 3 3 3 3 3 3 2 3 3
7 6 5 5 5 5 5 5 5 5 5 4 3 4 8 8 9 10 9 5 5 5 5 5 5 4 4 4 4 4 4 4 4 4 4 4 4 3 3 3 3 4 3
6 9 8 5 5 5 5 5 5 5 5 5 5 4 3 3 4 5 5 4 5 5 5 5 5 5 5 5 5 5 4 4 5 4 4 4 3 3 3 4 3 3 3
5 6 8 6 5 5 5 5 5 5 6 5 5 6 8 5 5 5 5 5 5 5 5 5 5 5 5 5 5 5 6 5 5 5 4 4 4 3 3 3 3 3 2
5 5 5 5 5 5 5 5 5 6 6 6 4 5 10 5 4 5 5 5 5 4 4 5 5 5 5 6 6 6 6 6 5 5 5 4 4 4 3 3 3 2 2
5 6 6 5 5 7 7 5 5 6 6 6 5 4 5 5 5 5 5 4 4 4 4 4 4 4 4 4 5 6 6 6 6 6 6 5 4 4 4 4 4 3 2
5 6 6 6 5 5 5 5 5 6 6 5 5 5 5 5 5 5 4 4 4 4 4 4 5 6 7 5 4 4 4 5 5 5 7 6 5 4 4 3 3 3 3
5 6 6 5 5 5 5 5 5 5 5 5 5 5 4 4 5 4 4 4 5 5 5 5 4 5 8 8 6 5 7 9 8 5 5 5 5 5 4 4 3 2 2
6 6 6 5 5 5 5 5 5 5 5 5 4 4 4 4 4 4 4 4 4 4 5 4 6 6 7 7 7 8 10 11 11 9 6 5 5 4 4 3 4 3 2
Wind_Direction
238 235 236 239 236 234 237 241 241 242 240 242 243 242 246 250 248 248 250 247 245 247 241 231 231 218 218 220 216 214 215 210 238 263 253 273 261 269 285 279 272 266 274
241 237 237 238 237 239 243 243 239 242 242 242 243 241 241 241 236 234 240 239 237 240 240 237 238 224 220 219 214 217 218 211 218 250 268 269 265 267 277 284 293 290 284
246 240 241 240 238 241 244 243 239 238 243 243 239 239 240 238 235 231 230 233 233 234 232 230 232 220 225 222 217 219 221 224 213 230 258 268 276 281 299 299 301 296 296
250 243 243 242 239 241 242 241 238 235 237 243 243 239 238 237 234 230 228 230 233 233 231 229 226 220 223 218 216 214 208 211 212 222 251 267 271 279 286 296 306 307 306
252 249 248 248 245 242 242 241 239 236 237 238 243 240 236 233 232 226 224 227 229 234 235 229 227 225 223 216 209 203 198 205 206 224 244 261 264 267 265 271 289 306 302
253 253 255 253 250 247 245 242 239 238 237 236 239 236 233 234 237 234 227 225 227 229 235 235 234 230 232 233 227 214 200 198 205 213 231 235 248 251 257 266 291 307 297
257 260 258 251 250 249 246 242 240 240 240 241 243 235 236 239 240 240 234 223 223 227 226 225 235 232 225 219 227 228 225 224 213 204 215 231 234 231 228 249 256 268 270
261 260 257 251 252 251 244 243 243 239 239 242 244 236 236 242 241 242 237 228 226 228 223 218 220 225 217 202 194 197 214 228 225 217 215 229 231 223 214 230 244 274 285
268 265 262 253 252 251 248 247 243 239 242 240 241 237 237 246 241 238 229 216 225 228 224 218 215 220 221 210 194 195 208 229 234 213 219 229 240 238 202 141 233 302 295
269 266 262 256 251 251 249 246 243 238 242 243 245 238 235 242 242 235 223 211 217 224 223 223 225 224 219 212 197 190 205 213 187 169 190 252 237 231 239 191 189 232 274
270 266 261 256 252 251 249 246 245 244 245 244 246 243 237 238 242 235 223 208 210 215 218 220 222 220 220 218 209 201 207 198 178 181 187 189 190 203 231 216 203 207 233
273 269 266 262 257 253 245 251 246 240 244 247 248 251 242 238 235 230 225 221 210 209 216 212 211 214 216 216 214 207 204 199 176 177 189 200 211 231 237 233 236 235 234
275 270 268 267 260 248 241 246 247 236 237 244 240 246 250 236 233 230 226 223 218 214 213 209 205 212 213 212 210 203 198 188 179 192 205 216 213 217 233 268 280 273 277
271 272 268 264 265 257 245 238 237 236 236 238 237 241 246 240 228 220 216 217 217 215 205 203 205 210 203 194 195 200 198 191 190 199 197 196 189 198 219 226 253 281 292
266 268 265 259 257 257 250 239 235 235 230 230 233 230 229 239 232 218 209 209 201 196 174 169 179 182 190 191 189 192 191 188 197 187 183 189 197 210 228 224 237 260 265
267 266 261 258 256 253 256 265 247 243 249 242 237 232 234 235 235 227 221 217 211 197 183 188 197 200 204 202 200 198 197 197 194 191 191 194 201 215 230 234 239 248 263
258 261 261 255 253 251 245 247 268 268 252 246 240 236 235 234 231 226 221 214 208 197 198 202 205 206 205 202 199 197 198 193 185 191 198 199 202 212 224 234 243 258 269
259 259 258 253 250 247 243 239 240 250 264 266 246 237 234 231 227 220 214 203 204 201 201 207 210 206 202 200 198 196 191 184 186 194 198 198 199 207 221 233 240 250 264
261 260 255 251 247 245 241 238 238 240 245 251 259 247 230 227 223 216 204 202 201 205 204 209 208 202 199 198 194 190 189 190 190 192 198 199 200 203 217 228 238 249 260
259 259 258 254 247 243 238 235 236 238 239 237 237 236 213 201 209 208 205 202 205 208 206 208 205 200 195 194 189 186 189 191 191 197 199 199 199 202 212 222 231 240 251
260 260 255 254 246 242 238 235 234 234 234 235 236 226 212 211 212 211 209 208 209 210 207 205 202 197 194 190 188 189 192 194 193 194 195 197 196 201 208 217 229 240 249
253 255 250 249 249 244 242 235 233 234 234 234 236 229 223 219 211 213 214 213 212 208 201 198 201 198 195 192 190 190 193 194 193 191 192 193 195 200 205 212 223 234 237
251 253 254 251 248 250 250 238 234 235 235 230 225 222 216 214 214 215 215 210 204 202 195 195 198 197 193 192 190 190 193 195 192 187 186 190 194 199 204 209 212 220 233
248 250 251 251 249 245 243 241 238 236 234 229 225 221 218 215 214 213 210 202 198 196 193 194 198 196 190 187 190 190 192 187 178 181 183 186 191 196 200 203 207 214 224
246 248 248 247 247 247 245 242 239 236 232 229 224 219 214 214 214 208 201 197 195 197 197 195 194 191 191 191 190 189 192 186 179 174 177 183 188 192 192 192 196 203 215
248 248 248 245 244 244 241 240 239 234 231 228 222 216 210 209 208 202 197 196 195 195 196 196 194 191 189 190 191 192 191 188 185 181 174 178 183 185 181 187 192 199 205